Regional Weather Roundup
Issued by NWS Newport/Morehead, NC

Home | Current Version | Previous Version | Text Only | Print | Product List | Glossary On
Versions: 1 2 3 4 5 6 7 8 9 10 11 12 13 14 15 16 17 18 19 20 21 22 23 24 25 26 27 28 29 30 31 32 33 34 35 36 37 38 39 40 41 42 43 44 45 46 47 48 49 50
785
ASUS42 KMHX 222113
RWRMHX
WEATHER ROUNDUP FOR EASTERN NORTH CAROLINA
NATIONAL WEATHER SERVICE NEWPORT/MOREHEAD CITY NC
500 PM EDT SAT JUL 22 2017

NOTE: "FAIR" INDICATES FEW OR NO CLOUDS BELOW 12,000 FEET
WITH NO SIGNIFICANT WEATHER AND/OR OBSTRUCTIONS TO VISIBILITY

NCZ015>017-031-032-045>047-102-103-222200-
NORTH COAST

CITY           SKY/WX    TMP DP  RH WIND       PRES   REMARKS
EDENTON        SUNNY     94  78  58 SW9       29.86F HX 110
ELIZABETH CITY MOSUNNY   93  80  65 SW14      29.85F HX 112
KITTY HAWK     PTCLDY    92  75  56 SW9       29.85F HX 103
MANTEO         MOSUNNY   90  77  65 SW18      29.87F HX 104

$$

NCZ045>047-081-094-103-104-222200-
CENTRAL COAST

CITY           SKY/WX    TMP DP  RH WIND       PRES   REMARKS
FRISCO         SUNNY     84  75  74 SW13      29.92F

$$

NCZ095-097-098-100-101-222200-
SOUTHERN COAST

CITY           SKY/WX    TMP DP  RH WIND       PRES   REMARKS
BEAUFORT       SUNNY     86  79  79 SW20      29.92F
CEDAR ISLAND   NOT AVBL
JACKSONVILLE   SUNNY     90  76  63 S13       29.90F HX 101
PINEY ISLAND   CLEAR    N/A N/A N/A SW20      29.91F
WILMINGTON     SUNNY     90  71  53 SW10      29.92F


$$

NCZ011>013-027>030-043-044-078>080-089-090>093-098-222200-
COASTAL PLAIN

CITY           SKY/WX    TMP DP  RH WIND       PRES   REMARKS
AHOSKIE          N/A     92  78  63 S7        29.84F HX 106
CLINTON        SUNNY     94  76  55 SW7       29.91F HX 106
ELIZABETHTOWN  NOT AVBL
GOLDSBORO      SUNNY     96  73  48 SW13      29.88F HX 105
GREENVILLE     SUNNY     95  73  49 W10       29.90S HX 105
HAVELOCK       MOSUNNY   89  72  56 S15       29.92F
KENANSVILLE    MOSUNNY   93  73  52 SW8       29.90F HX 102
KINSTON        MOSUNNY   95  72  46 SW12      29.89F HX 103
NEW BERN       MOSUNNY   90  77  65 S12       29.90F HX 103
RICHLANDS      MOSUNNY   94  76  55 SW8       29.91F HX 106
ROCKY MOUNT    MOSUNNY   95  76  53 S13       29.86F HX 108
WASHINGTON     SUNNY     93  76  56 SW13      29.88F HX 106
WHITEVILLE     PTSUNNY   94  73  50 SW8       29.92F HX 103

$$

AMZ130-135-150-152-154-156-158-170-250-252-270-ANZ085-086-088-633-658-670-222200-
MARINE OBSERVATIONS

STATION/POSITION TIME  TEMP    WIND        PRES    WAVE   SWELL
                       AIR SEA DIR/SP/G            HT/PER HT/PER
                 (UTC) (F)     (DEG/KT/KT) (MB)    (FT/S) (FT/S)
CHESAPEAKE LIGHT NOT AVBL
64 E VA BEACH    2050   82 81  220/ 17/ 19 1011.0    5/ 6   2/ 8
DUCK             2042   90 60  230/ 13/ 18 1010.6
2 E DUCK         2100      64                N/A     2/10
OREGON INLET     2042   86 86  200/ 22/ 25 1011.6
13E OREGON INLT  2048      78                N/A     4/ 4   2/ 9
HATTERAS CG      2042   82 79  230/ 12/ 18 1013.3
DIAMOND BUOY     2050   83 82  230/ 19/ 23 1013.1    4/ 4   2/ 8
CAPE LOOKOUT     2100   84     210/ 12/ 16 1013.2
BEAUFORT LAB     2042   84 81  210/ 11/ 19 1013.0
30 SE NEW RVR IN 2008   81 82  230/ 14/ 17 1014.5
30 SE NEW RVR IN 2043      82                N/A     4/10   2/11
27 SE WRIGHTSVLE 2008   83 82  210/ 14/ 17 1014.2
5 SE WRIGHTSVLE  2008   81 79  200/ 10/ 16 1014.0
225 S CAPE HAT   2050   83 84  210/ 14/ 16 1017.1    4/ 9   3/ 9
41 SE CHARLESTON 2050   83 84  200/ 10/ 12 1014.4    3/ 9   3/ 9

$$




USA.gov is the U.S. government's official web portal to all federal, state and local government web resources and services.